TimeMST,TemperatureF,Dew PointF,Humidity,Sea Level PressureIn,VisibilityMPH,Wind Direction,Wind SpeedMPH,Gust SpeedMPH,PrecipitationIn,Events,Conditions,WindDirDegrees,DateUTC
12:15 AM,37.4,28.4,70,-9999,10.0,West,21.9,29.9,N/A,,Overcast,270,2013-01-16 07:15:00
12:35 AM,37.4,28.4,70,-9999,10.0,West,23.0,28.8,N/A,,Overcast,260,2013-01-16 07:35:00
12:55 AM,37.4,28.4,70,-9999,10.0,West,21.9,29.9,N/A,,Overcast,270,2013-01-16 07:55:00
1:15 AM,37.4,28.4,70,-9999,10.0,West,20.7,27.6,N/A,,Overcast,270,2013-01-16 08:15:00
1:35 AM,37.4,28.4,70,-9999,10.0,West,21.9,28.8,N/A,,Overcast,270,2013-01-16 08:35:00
2:15 AM,37.4,28.4,70,-9999,10.0,West,20.7,25.3,N/A,,Partly Cloudy,260,2013-01-16 09:15:00
2:55 AM,37.4,28.4,70,-9999,10.0,West,20.7,26.5,N/A,,Mostly Cloudy,270,2013-01-16 09:55:00
3:15 AM,37.4,28.4,70,-9999,10.0,West,26.5,29.9,N/A,,Overcast,270,2013-01-16 10:15:00
3:35 AM,37.4,28.4,70,-9999,10.0,West,23.0,28.8,N/A,,Overcast,270,2013-01-16 10:35:00
3:55 AM,37.4,28.4,70,-9999,10.0,West,24.2,31.1,N/A,,Overcast,270,2013-01-16 10:55:00
4:15 AM,37.4,28.4,70,-9999,10.0,West,25.3,33.4,N/A,,Overcast,260,2013-01-16 11:15:00
4:35 AM,37.4,28.4,70,-9999,10.0,West,20.7,24.2,N/A,,Overcast,260,2013-01-16 11:35:00
4:55 AM,37.4,28.4,70,-9999,10.0,West,19.6,24.2,N/A,,Overcast,260,2013-01-16 11:55:00
5:15 AM,37.4,28.4,70,-9999,10.0,West,19.6,26.5,N/A,,Overcast,270,2013-01-16 12:15:00
5:35 AM,37.4,28.4,70,-9999,10.0,West,19.6,24.2,N/A,,Overcast,270,2013-01-16 12:35:00
5:55 AM,37.4,28.4,70,-9999,10.0,West,20.7,27.6,N/A,,Overcast,280,2013-01-16 12:55:00
6:35 AM,37.4,28.4,70,-9999,10.0,West,24.2,28.8,N/A,,Overcast,280,2013-01-16 13:35:00
6:55 AM,37.4,26.6,65,-9999,10.0,WNW,25.3,28.8,N/A,,Overcast,290,2013-01-16 13:55:00
7:15 AM,37.4,28.4,70,-9999,10.0,West,24.2,31.1,N/A,,Overcast,280,2013-01-16 14:15:00
7:35 AM,37.4,26.6,65,-9999,10.0,WNW,23.0,29.9,N/A,,Overcast,290,2013-01-16 14:35:00
7:55 AM,37.4,28.4,70,-9999,10.0,WNW,26.5,32.2,N/A,,Overcast,290,2013-01-16 14:55:00
8:15 AM,37.4,28.4,70,-9999,10.0,WNW,19.6,-,N/A,,Mostly Cloudy,290,2013-01-16 15:15:00
8:35 AM,37.4,28.4,70,-9999,10.0,West,19.6,26.5,N/A,,Mostly Cloudy,280,2013-01-16 15:35:00
9:15 AM,37.4,28.4,70,-9999,10.0,West,11.5,-,N/A,,Partly Cloudy,270,2013-01-16 16:15:00
9:55 AM,35.6,28.4,75,-9999,10.0,WNW,16.1,-,N/A,,Clear,290,2013-01-16 16:55:00
10:15 AM,37.4,28.4,70,-9999,10.0,West,16.1,-,N/A,,Partly Cloudy,280,2013-01-16 17:15:00
10:35 AM,37.4,28.4,70,29.99,10.0,WNW,18.4,-,N/A,,Scattered Clouds,290,2013-01-16 17:35:00
10:55 AM,39.2,28.4,65,30.00,10.0,WNW,19.6,26.5,N/A,,Partly Cloudy,290,2013-01-16 17:55:00
11:15 AM,39.2,28.4,65,-9999,10.0,West,23.0,29.9,N/A,,Clear,280,2013-01-16 18:15:00
11:35 AM,37.4,28.4,70,-9999,10.0,WNW,20.7,27.6,N/A,,Clear,300,2013-01-16 18:35:00
11:55 AM,37.4,30.2,75,-9999,10.0,WNW,16.1,24.2,N/A,,Clear,290,2013-01-16 18:55:00
12:15 PM,37.4,30.2,75,-9999,10.0,West,13.8,-,N/A,,Clear,280,2013-01-16 19:15:00
12:35 PM,37.4,30.2,75,-9999,10.0,West,13.8,17.3,N/A,,Scattered Clouds,280,2013-01-16 19:35:00
12:55 PM,37.4,28.4,70,-9999,10.0,West,11.5,-,N/A,,Overcast,270,2013-01-16 19:55:00
1:15 PM,37.4,28.4,70,-9999,10.0,West,13.8,-,N/A,,Overcast,270,2013-01-16 20:15:00
1:35 PM,37.4,28.4,70,-9999,10.0,West,12.7,-,N/A,,Overcast,260,2013-01-16 20:35:00
1:55 PM,37.4,28.4,70,-9999,10.0,West,12.7,-,N/A,,Overcast,270,2013-01-16 20:55:00
2:15 PM,37.4,28.4,70,-9999,10.0,West,10.4,-,N/A,,Overcast,260,2013-01-16 21:15:00
2:35 PM,37.4,28.4,70,-9999,10.0,West,16.1,19.6,N/A,,Overcast,270,2013-01-16 21:35:00
2:55 PM,37.4,28.4,70,-9999,10.0,West,11.5,-,N/A,,Scattered Clouds,270,2013-01-16 21:55:00
3:15 PM,37.4,28.4,70,-9999,10.0,West,15.0,-,N/A,,Clear,270,2013-01-16 22:15:00
3:55 PM,35.6,28.4,75,-9999,10.0,West,12.7,-,N/A,,Partly Cloudy,280,2013-01-16 22:55:00
4:15 PM,35.6,28.4,75,-9999,10.0,West,17.3,-,N/A,,Clear,280,2013-01-16 23:15:00
4:35 PM,35.6,28.4,75,-9999,10.0,West,17.3,-,N/A,,Partly Cloudy,280,2013-01-16 23:35:00
4:55 PM,35.6,28.4,75,-9999,10.0,West,15.0,-,N/A,,Clear,280,2013-01-16 23:55:00
5:15 PM,35.6,28.4,75,-9999,10.0,West,12.7,-,N/A,,Scattered Clouds,280,2013-01-17 00:15:00
5:35 PM,35.6,28.4,75,-9999,10.0,West,13.8,-,N/A,,Mostly Cloudy,280,2013-01-17 00:35:00
5:55 PM,35.6,28.4,75,-9999,10.0,West,13.8,-,N/A,,Mostly Cloudy,280,2013-01-17 00:55:00
6:15 PM,35.6,28.4,75,-9999,10.0,WNW,12.7,-,N/A,,Overcast,290,2013-01-17 01:15:00
6:35 PM,35.6,28.4,75,-9999,10.0,WNW,12.7,-,N/A,,Overcast,290,2013-01-17 01:35:00
6:55 PM,35.6,30.2,81,-9999,10.0,WNW,12.7,-,N/A,,Overcast,300,2013-01-17 01:55:00
7:15 PM,35.6,28.4,75,-9999,10.0,WNW,10.4,-,N/A,,Overcast,300,2013-01-17 02:15:00
7:35 PM,35.6,28.4,75,-9999,10.0,WNW,12.7,-,N/A,,Overcast,300,2013-01-17 02:35:00
7:55 PM,35.6,28.4,75,-9999,10.0,WNW,11.5,-,N/A,,Overcast,290,2013-01-17 02:55:00
8:15 PM,35.6,28.4,75,-9999,10.0,WNW,12.7,-,N/A,,Overcast,300,2013-01-17 03:15:00
8:35 PM,35.6,28.4,75,-9999,10.0,WNW,15.0,-,N/A,,Overcast,300,2013-01-17 03:35:00
8:55 PM,35.6,28.4,75,-9999,10.0,WNW,15.0,-,N/A,,Overcast,300,2013-01-17 03:55:00
9:15 PM,35.6,28.4,75,-9999,10.0,WNW,15.0,-,N/A,,Overcast,300,2013-01-17 04:15:00
9:35 PM,35.6,28.4,75,-9999,10.0,WNW,12.7,-,N/A,,Overcast,300,2013-01-17 04:35:00
9:55 PM,35.6,28.4,75,-9999,10.0,WNW,15.0,20.7,N/A,,Overcast,300,2013-01-17 04:55:00
10:15 PM,35.6,28.4,75,-9999,10.0,WNW,15.0,20.7,N/A,,Overcast,290,2013-01-17 05:15:00
10:35 PM,35.6,28.4,75,-9999,10.0,West,13.8,-,N/A,,Overcast,280,2013-01-17 05:35:00
10:55 PM,35.6,28.4,75,-9999,10.0,West,12.7,-,N/A,,Overcast,280,2013-01-17 05:55:00
11:15 PM,35.6,28.4,75,-9999,10.0,NW,11.5,-,N/A,,Overcast,310,2013-01-17 06:15:00
11:35 PM,35.6,28.4,75,-9999,10.0,West,9.2,-,N/A,,Overcast,280,2013-01-17 06:35:00
11:55 PM,35.6,28.4,75,-9999,10.0,West,11.5,-,N/A,,Overcast,280,2013-01-17 06:55:00